Simultaneous Nadir Overpasses (SNOs) Predictions

Prediction of SNOs between LANDSAT-8 and METOP-A Satellite Orbit:

Table of predicted SNOs for the next 14.0 days since TLE Epoch: 3/18/2016
Index Date (LANDSAT-8) Time (LANDSAT-8) Lat,Lon (LANDSAT-8) SZA (LANDSAT-8 ) Date (METOP-A) Time (METOP-A) Lat,Lon (METOP-A) SZA (METOP-A ) Distance(km) Time Diff (sec)
1 03/19/2016 06:35:37 -81.11, -59.56 96.73 03/19/2016 06:34:38 -81.11, -59.42 96.74 2.36 59
2 03/19/2016 07:25:03 81.12, 108.19 83.27 03/19/2016 07:25:18 81.12, 108.05 83.27 2.34 15
3 03/22/2016 02:09:50 -81.10, 6.73 97.84 03/22/2016 02:09:02 -81.10, 6.71 97.86 0.40 48
4 03/22/2016 02:59:15 81.13, 174.81 82.21 03/22/2016 02:59:40 81.13, 174.90 82.23 1.45 25
5 03/24/2016 21:44:03 -81.11, 73.31 98.91 03/24/2016 21:43:26 -81.11, 73.19 98.94 2.17 37
6
